Probability
0 0 0 0 0 0 0 0 0 0 3 23 26 26 29 42 55 52 52 42 48 52 55 61 52 55 42 42 45 48 52 48 61 65 61 58 55 58 58 52 35 48 42 42
0 0 0 0 0 0 0 0 3 3 6 19 26 29 29 35 45 52 52 48 52 55 65 61 58 55 52 52 48 58 58 61 65 65 61 65 58 61 58 52 48 48 42 39
0 0 0 0 3 6 6 0 3 3 13 19 29 26 26 32 39 39 29 35 48 52 71 74 68 65 58 58 55 55 58 55 61 58 61 55 55 58 58 48 48 48 48 42
0 0 0 0 3 0 3 10 6 16 6 16 26 26 32 35 39 35 35 35 32 45 55 65 61 65 61 55 52 58 48 48 55 55 48 55 55 52 52 52 48 45 45 45
0 0 0 0 3 0 0 6 16 13 13 16 19 23 32 32 32 32 26 39 29 29 32 52 48 52 52 52 52 52 48 55 52 45 48 48 52 52 52 52 52 52 42 35
0 0 0 0 0 3 3 10 10 13 19 16 19 26 26 26 26 29 23 26 29 26 26 39 45 48 48 45 45 48 48 45 45 48 48 45 48 55 45 42 39 39 32 32
0 0 0 0 0 0 0 3 10 10 16 19 26 32 26 19 23 23 23 23 23 26 26 35 39 48 45 35 32 39 39 42 42 45 52 48 52 48 48 32 35 19 19 19
0 0 0 3 0 6 13 13 10 13 13 13 29 23 16 13 16 13 13 13 16 16 19 23 26 26 23 16 19 19 29 26 23 19 19 23 29 35 35 29 26 19 19 16
0 0 0 0 3 10 13 10 10 10 10 16 13 6 6 10 10 6 10 13 10 10 13 13 16 16 13 13 16 13 13 19 19 16 19 23 26 23 19 16 13 10 10 13
0 0 0 3 0 3 10 6 6 10 13 10 3 6 6 3 3 6 6 6 6 3 6 10 10 10 13 16 16 16 16 10 13 13 10 13 19 16 13 6 13 10 6 6
0 0 0 0 0 3 6 3 6 10 6 3 3 3 3 0 0 0 0 6 6 6 6 0 3 3 3 3 3 3 3 3 3 3 3 3 3 3 0 3 6 6 3 0
0 0 0 0 0 0 3 6 6 6 3 3 0 3 0 0 0 0 0 0 0 3 3 3 0 3 3 6 6 3 3 3 3 3 3 3 3 3 0 0 0 0 0 0
0 3 0 0 0 0 3 3 6 3 3 0 0 0 0 0 0 0 0 0 0 0 0 3 3 3 3 3 3 3 3 3 3 3 3 3 3 0 0 0 0 0 0 0
3 0 0 0 0 0 0 3 3 0 0 0 0 0 0 0 0 0 0 0 0 0 0 0 0 3 3 3 3 3 3 3 3 3 3 3 0 0 0 0 0 0 0 0
0 0 0 0 0 0 0 0 0 0 0 0 0 0 0 0 0 0 0 0 0 0 0 0 0 0 0 0 0 3 3 3 0 0 0 0 0 0 0 0 0 0 0 0
3 0 0 0 0 3 0 0 0 0 0 0 0 0 0 0 0 0 0 0 0 0 0 0 0 0 0 0 0 0 0 0 0 0 0 0 0 0 0 0 0 0 0 0
0 0 0 0 0 3 3 0 0 0 0 0 0 0 0 0 0 0 0 0 0 0 0 0 0 0 0 0 0 0 0 0 0 0 0 0 0 0 0 0 0 0 0 0
0 0 0 0 0 0 3 3 3 3 3 0 0 0 0 0 0 0 0 0 0 0 0 0 0 0 0 0 0 0 0 0 0 0 0 0 0 0 0 0 0 0 0 0
3 0 0 0 0 0 0 3 3 3 0 0 0 0 0 0 0 0 0 0 0 0 0 0 0 0 0 0 0 0 0 0 0 0 0 0 0 0 0 0 0 0 0 0
3 3 3 3 0 0 3 3 3 0 0 0 0 0 0 0 0 0 0 0 0 0 0 0 0 0 0 0 0 0 0 0 0 0 0 0 0 0 0 0 0 0 0 0
6 6 3 0 0 0 0 0 0 0 0 0 0 0 0 0 0 0 0 0 0 0 0 0 0 0 0 0 0 0 0 0 0 0 0 0 0 0 0 0 0 0 0 0
3 3 0 0 0 0 0 0 0 0 0 0 0 0 0 0 0 0 0 0 0 0 0 0 0 0 0 0 0 0 0 0 0 0 0 0 0 0 0 0 0 0 0 0
0 0 0 0 0 0 0 0 0 0 0 0 0 0 0 0 0 0 0 0 0 0 0 0 0 0 0 0 0 0 0 0 0 0 0 0 0 0 0 0 0 0 0 0
0 0 0 0 0 0 0 0 0 0 0 0 0 0 0 0 0 0 0 0 0 0 0 0 0 0 0 0 0 0 0 0 0 0 0 0 0 0 0 0 0 0 0 0
0 0 0 0 0 0 0 0 0 0 0 0 0 0 0 0 0 0 0 0 0 0 0 0 0 0 0 0 0 0 0 0 0 0 0 0 0 0 0 0 0 0 0 0
0 0 0 0 0 0 0 0 0 0 0 0 0 0 0 0 0 0 0 0 0 0 0 0 0 0 0 0 0 0 0 0 0 0 0 0 0 0 0 0 0 0 0 0
0 0 0 0 0 0 0 0 0 0 0 0 0 0 0 0 0 0 0 0 0 0 0 0 0 0 0 0 0 0 0 0 0 0 0 0 0 0 0 0 0 0 0 0
Height
5791 5792 5793 5794 5796 5797 5799 5801 5804 5806 5807 5808 5808 5810 5811 5811 5812 5813 5813 5814 5814 5815 5815 5815 5816 5817 5817 5818 5819 5820 5821 5822 5824 5825 5827 5829 5831 5832 5834 5836 5838 5840 5842 5843
5784 5785 5786 5786 5788 5790 5792 5794 5796 5798 5800 5801 5802 5804 5805 5807 5808 5809 5810 5811 5812 5812 5813 5813 5814 5815 5816 5817 5817 5819 5820 5821 5822 5823 5825 5826 5828 5829 5831 5832 5834 5836 5837 5837
5777 5778 5778 5779 5781 5782 5784 5786 5789 5791 5794 5795 5796 5798 5800 5802 5803 5804 5805 5807 5808 5809 5810 5811 5812 5813 5813 5814 5815 5816 5818 5819 5820 5821 5822 5824 5825 5826 5827 5829 5830 5831 5831 5832
5770 5772 5771 5774 5774 5775 5777 5779 5781 5783 5786 5788 5790 5792 5794 5796 5798 5799 5800 5802 5803 5805 5807 5808 5809 5810 5810 5811 5812 5814 5815 5816 5817 5818 5819 5820 5821 5822 5823 5824 5825 5825 5825 5825
5764 5764 5765 5767 5768 5769 5770 5772 5774 5776 5779 5781 5784 5786 5788 5790 5792 5794 5796 5797 5799 5801 5802 5804 5805 5806 5807 5808 5808 5809 5811 5812 5813 5813 5814 5815 5815 5816 5817 5817 5818 5818 5818 5817
5757 5758 5759 5761 5762 5762 5765 5766 5768 5770 5773 5775 5778 5780 5783 5785 5787 5789 5791 5792 5794 5796 5797 5799 5800 5801 5802 5803 5804 5805 5806 5807 5808 5808 5809 5809 5810 5810 5810 5810 5810 5810 5809 5809
5750 5751 5752 5754 5756 5758 5760 5762 5763 5764 5767 5769 5772 5775 5777 5779 5781 5783 5785 5787 5789 5791 5792 5793 5794 5796 5797 5798 5798 5799 5800 5801 5802 5802 5803 5803 5803 5803 5803 5803 5802 5802 5801 5800
5745 5746 5749 5749 5750 5752 5754 5755 5756 5758 5761 5763 5765 5768 5771 5773 5775 5777 5779 5781 5783 5785 5786 5788 5789 5790 5791 5792 5793 5793 5794 5794 5795 5796 5796 5796 5796 5795 5795 5795 5794 5793 5792 5791
5740 5742 5742 5743 5744 5746 5748 5749 5751 5753 5755 5757 5759 5762 5765 5767 5769 5771 5773 5775 5777 5779 5780 5782 5783 5784 5785 5786 5786 5787 5787 5787 5788 5788 5788 5788 5788 5788 5787 5786 5785 5784 5783 5782
5734 5735 5736 5737 5739 5741 5743 5745 5746 5748 5750 5752 5754 5756 5758 5761 5763 5765 5767 5769 5770 5772 5774 5775 5776 5777 5778 5779 5780 5780 5781 5781 5780 5780 5780 5780 5780 5779 5778 5778 5776 5775 5773 5772
5729 5730 5732 5733 5735 5736 5738 5740 5741 5743 5745 5747 5749 5751 5753 5755 5757 5759 5761 5763 5765 5766 5767 5769 5770 5771 5771 5772 5772 5773 5773 5773 5773 5772 5771 5771 5770 5769 5768 5767 5766 5765 5763 5761
5725 5726 5727 5729 5730 5732 5733 5735 5737 5739 5740 5742 5744 5746 5748 5750 5752 5754 5756 5757 5759 5760 5761 5762 5763 5764 5765 5765 5765 5766 5765 5765 5764 5764 5763 5762 5760 5759 5758 5757 5756 5754 5752 5750
5721 5722 5723 5725 5726 5728 5729 5731 5733 5734 5736 5738 5740 5742 5744 5745 5747 5749 5750 5752 5753 5754 5755 5756 5757 5757 5758 5758 5758 5758 5757 5757 5756 5755 5754 5753 5751 5750 5748 5747 5744 5742 5740 5738
5717 5719 5720 5721 5723 5724 5726 5728 5729 5731 5732 5734 5736 5738 5740 5741 5742 5744 5745 5747 5748 5749 5749 5750 5751 5751 5751 5751 5751 5750 5750 5749 5748 5746 5745 5744 5742 5740 5738 5735 5733 5730 5728 5725
5714 5716 5718 5719 5720 5722 5723 5725 5726 5728 5730 5731 5733 5734 5736 5737 5738 5739 5741 5742 5743 5744 5744 5745 5745 5745 5745 5745 5744 5743 5742 5741 5740 5738 5736 5734 5732 5730 5727 5724 5721 5718 5714 5711
5712 5713 5715 5717 5718 5719 5721 5722 5724 5725 5727 5728 5730 5731 5732 5733 5734 5735 5736 5737 5738 5739 5739 5740 5740 5739 5739 5738 5737 5736 5735 5733 5732 5730 5727 5725 5722 5719 5715 5712 5708 5705 5701 5698
5710 5711 5713 5714 5716 5717 5719 5720 5722 5723 5724 5726 5727 5728 5729 5730 5731 5732 5733 5733 5734 5734 5734 5734 5734 5733 5732 5731 5730 5728 5726 5724 5722 5720 5717 5713 5710 5707 5703 5699 5695 5691 5688 5684
5707 5709 5710 5712 5714 5716 5717 5718 5720 5721 5722 5723 5724 5725 5726 5727 5727 5728 5729 5729 5729 5729 5728 5728 5727 5726 5725 5723 5721 5719 5717 5714 5711 5708 5705 5701 5697 5694 5690 5686 5682 5678 5674 5671
5705 5706 5708 5710 5711 5713 5715 5716 5717 5719 5720 5721 5721 5722 5723 5723 5724 5724 5724 5724 5724 5723 5722 5721 5720 5718 5716 5714 5712 5709 5706 5703 5699 5696 5692 5689 5685 5681 5677 5674 5670 5666 5662 5658
5702 5704 5706 5707 5709 5710 5712 5713 5714 5715 5716 5717 5718 5718 5719 5719 5719 5719 5719 5718 5717 5716 5715 5713 5711 5709 5707 5704 5701 5698 5695 5692 5688 5685 5681 5677 5673 5669 5665 5662 5658 5654 5650 5646
5699 5700 5702 5704 5706 5707 5708 5710 5711 5712 5712 5713 5713 5714 5714 5714 5713 5713 5712 5711 5710 5708 5706 5704 5702 5700 5697 5694 5691 5688 5684 5681 5677 5674 5670 5666 5662 5658 5654 5650 5646 5643 5639 5635
5695 5697 5699 5701 5702 5703 5704 5706 5707 5707 5708 5708 5708 5708 5708 5707 5707 5706 5704 5703 5701 5700 5697 5695 5693 5690 5687 5684 5681 5678 5674 5670 5666 5663 5659 5655 5651 5647 5643 5639 5635 5631 5628 5624
5692 5694 5695 5697 5698 5699 5700 5701 5702 5702 5702 5702 5702 5702 5701 5700 5699 5698 5696 5695 5693 5691 5688 5686 5683 5680 5677 5674 5671 5667 5663 5660 5656 5652 5648 5644 5640 5636 5632 5628 5625 5621 5618 5615
5688 5690 5691 5693 5694 5695 5695 5696 5696 5697 5696 5696 5695 5695 5694 5693 5691 5689 5687 5686 5684 5681 5679 5676 5673 5670 5667 5664 5660 5657 5653 5649 5645 5642 5638 5634 5630 5626 5622 5619 5615 5612 5609 5606
5684 5685 5687 5688 5689 5689 5690 5690 5690 5690 5689 5689 5688 5687 5686 5684 5683 5681 5679 5677 5675 5672 5669 5667 5664 5661 5657 5654 5650 5646 5643 5639 5636 5632 5629 5625 5621 5618 5614 5611 5607 5604 5601 5598
5680 5681 5682 5683 5683 5684 5684 5684 5683 5683 5682 5681 5680 5679 5677 5676 5674 5672 5670 5668 5665 5663 5660 5657 5654 5651 5647 5644 5640 5637 5634 5631 5627 5624 5621 5617 5614 5611 5607 5604 5601 5598 5595 5592
5675 5676 5677 5677 5678 5678 5678 5677 5677 5676 5675 5674 5673 5671 5669 5667 5665 5663 5661 5659 5656 5653 5650 5647 5644 5641 5638 5635 5631 5629 5626 5623 5620 5617 5614 5611 5607 5604 5601 5598 5595 5592 5589 5586
Wind_Speed
22 23 24 23 23 24 24 23 23 21 20 20 19 18 16 16 16 14 13 11 11 10 9 9 8 7 6 8 9 9 9 10 11 13 14 15 16 16 17 18 19 20 21 22
23 24 25 25 25 25 25 24 23 22 22 21 20 19 18 18 17 17 15 14 13 12 11 11 10 9 9 8 10 10 10 11 12 13 13 14 15 16 17 18 19 20 22 23
24 23 24 24 23 25 25 25 25 24 23 22 22 21 20 20 19 19 18 17 15 14 13 13 12 12 12 12 12 12 12 13 13 13 14 15 16 16 17 18 20 22 24 25
22 22 23 22 22 23 24 25 25 25 24 23 23 23 21 21 20 20 19 19 17 16 15 15 14 14 14 14 14 15 16 16 16 16 17 17 18 20 21 22 23 24 25 27
22 22 22 22 21 22 23 24 23 24 24 24 24 24 23 23 22 22 20 20 19 18 18 17 17 17 17 17 18 18 18 19 19 19 19 20 21 22 24 25 26 27 28 29
21 21 22 21 19 21 22 23 22 22 23 23 24 25 24 24 23 23 22 21 21 21 20 20 19 19 19 19 20 20 20 21 21 22 22 23 24 25 27 28 28 30 31 31
20 21 21 20 19 20 22 21 21 22 23 23 24 25 24 25 24 24 23 23 23 23 22 21 21 21 21 21 21 21 22 22 23 24 25 26 27 27 28 28 30 30 31 32
20 20 21 19 19 20 20 19 20 21 22 24 25 25 25 25 25 24 24 24 25 24 23 23 23 23 23 23 23 22 24 24 24 26 27 28 28 29 29 30 31 32 32 33
19 19 19 19 18 19 19 19 19 21 22 23 24 24 25 25 25 25 25 25 26 25 23 23 25 25 25 25 25 25 25 25 26 28 29 29 30 31 31 32 33 34 35 35
17 18 18 17 17 17 18 18 19 20 20 21 22 23 23 25 25 24 23 24 25 25 25 24 24 25 25 26 26 27 27 27 28 30 31 30 31 32 32 33 34 35 35 36
16 17 17 16 16 17 17 18 18 19 20 20 20 22 22 22 23 24 24 23 23 24 24 25 25 25 25 26 27 28 28 28 30 32 32 32 33 33 33 33 34 35 37 38
16 15 16 15 15 16 16 16 17 18 20 19 20 20 20 21 22 23 23 24 24 24 23 23 23 24 24 25 26 27 28 29 30 31 33 33 34 34 34 35 36 37 39 40
15 14 14 15 15 16 15 15 16 17 18 19 19 19 19 19 20 21 22 22 22 22 22 23 23 23 24 24 25 26 27 29 29 30 31 32 33 33 35 36 37 39 40 41
14 13 13 13 13 13 14 15 15 15 15 16 17 18 19 18 18 18 19 19 20 20 20 21 22 22 23 24 25 25 26 28 29 30 31 33 34 35 37 38 39 41 42 43
13 13 12 12 11 12 12 13 14 14 14 14 14 15 15 15 15 16 16 17 18 19 19 20 20 21 22 23 24 25 27 28 30 31 33 34 36 37 39 40 41 43 44 45
12 12 11 10 10 11 11 11 11 10 11 12 12 13 14 14 14 14 15 15 16 17 18 19 20 21 22 24 26 27 29 30 32 33 35 36 38 39 41 42 43 44 45 46
13 12 11 11 9 9 8 8 9 10 10 11 11 11 12 13 13 12 13 14 16 17 18 19 20 22 23 25 27 29 31 32 34 35 37 38 40 41 42 43 44 45 45 46
13 13 12 11 10 10 10 9 9 9 10 11 11 12 12 12 12 12 13 15 16 17 18 20 22 24 26 27 29 31 33 35 36 38 39 40 41 42 42 43 44 44 44 44
13 12 12 12 11 11 10 10 10 10 11 12 12 13 13 13 14 15 16 17 18 20 21 23 25 27 29 31 32 34 36 37 38 39 40 40 41 42 42 42 42 42 41 41
13 13 14 13 12 12 12 11 11 11 11 12 13 13 14 14 16 17 18 20 21 23 25 26 28 30 31 33 34 36 37 38 39 39 39 39 39 40 40 40 40 40 39 38
15 14 14 14 13 13 13 12 12 12 13 13 14 15 15 17 18 20 21 23 24 26 28 29 30 31 33 34 35 36 37 38 38 38 38 39 39 39 39 39 38 38 37 36
15 15 15 14 14 14 14 14 14 14 15 15 16 17 18 20 21 23 24 26 27 28 29 31 32 33 34 35 36 36 37 37 37 37 37 37 37 37 37 37 36 35 34 34
15 15 15 15 15 15 16 16 17 17 17 18 19 20 21 23 24 25 26 27 29 30 31 32 33 34 34 35 35 36 36 35 35 35 35 35 35 35 34 34 33 32 31 31
15 15 16 16 15 16 16 17 18 19 19 20 21 23 24 25 26 27 28 29 30 31 32 33 33 34 34 34 34 34 34 33 33 32 32 32 32 32 31 30 29 29 29 28
16 16 17 17 17 17 18 19 19 20 21 22 23 24 25 26 27 28 29 30 31 32 32 32 33 33 33 33 33 32 31 31 30 30 29 29 28 28 27 26 26 25 25 25
17 17 17 17 18 18 18 19 20 21 22 23 24 25 26 27 28 29 30 30 31 31 32 32 32 32 32 32 31 30 29 28 27 27 26 26 25 24 24 23 23 23 22 22
16 17 17 17 17 18 19 19 20 21 22 23 24 25 26 27 28 29 29 30 30 30 31 31 30 30 30 29 28 27 26 25 25 24 23 23 22 22 21 21 21 20 20 19
Wind_Direction
250 250 255 256 253 250 248 248 248 249 249 247 247 246 245 247 248 249 253 256 255 254 256 256 256 253 249 237 230 228 225 225 225 227 230 235 237 238 239 240 241 244 249 251
257 257 257 255 252 249 248 250 248 245 246 243 242 242 240 244 245 245 249 251 251 251 252 249 249 251 251 251 243 238 236 236 235 235 237 240 242 244 246 246 247 249 253 256
260 260 259 256 251 248 247 247 243 243 244 240 238 237 239 241 242 245 246 248 249 247 247 248 248 252 253 253 251 247 246 246 246 246 247 247 248 251 252 253 255 256 258 261
260 260 260 257 250 245 243 242 241 241 242 238 234 235 238 239 240 242 244 243 242 240 244 247 249 252 255 254 253 253 251 251 251 251 252 253 254 255 256 258 260 262 264 266
257 259 259 255 247 242 240 241 241 240 238 236 233 233 235 237 239 240 242 240 240 241 244 247 250 252 254 256 256 257 256 254 253 254 255 257 258 259 260 261 263 265 267 270
253 254 254 251 246 241 241 242 239 238 235 233 231 233 234 235 237 239 242 240 239 243 246 248 250 253 255 255 256 258 259 257 254 255 257 260 263 265 266 266 267 270 270 270
251 251 250 247 244 240 240 240 237 235 233 231 232 234 233 233 236 237 237 239 241 245 248 250 252 254 256 256 256 258 258 259 259 259 260 263 266 267 269 270 271 273 273 273
247 246 247 244 241 239 239 237 234 232 232 232 234 235 233 234 236 237 238 240 242 245 247 248 250 252 255 256 256 258 259 259 259 260 262 264 266 268 270 270 271 274 274 275
244 244 245 243 239 237 236 234 232 232 234 235 235 234 233 234 235 237 239 242 243 244 247 249 251 252 253 255 256 259 260 259 260 260 262 264 266 269 272 273 273 274 274 275
244 241 239 237 234 232 231 231 232 232 234 235 233 234 235 235 235 234 236 240 242 243 245 248 252 252 254 257 257 257 259 261 263 263 264 267 270 272 274 275 277 278 279 278
241 237 236 235 234 232 228 229 230 230 230 232 233 232 232 234 235 237 241 243 244 244 245 247 251 254 256 258 259 260 262 263 266 265 265 269 272 274 275 276 278 279 280 281
235 235 232 231 230 228 227 227 228 229 229 228 229 228 230 232 235 236 239 242 246 245 246 249 253 256 258 260 261 262 264 267 268 270 270 271 273 276 277 279 279 280 281 281
233 231 228 227 223 222 225 228 231 231 229 230 227 224 226 231 234 236 240 244 248 250 251 252 254 257 259 261 263 265 269 272 274 275 276 277 278 279 279 280 281 281 282 283
229 227 224 221 219 218 219 222 221 222 221 223 227 226 225 230 235 238 241 244 248 251 254 256 259 263 265 266 267 270 274 277 280 282 282 282 283 284 284 284 284 284 284 285
223 220 219 216 212 210 210 213 213 215 218 221 224 225 227 232 238 242 246 249 254 259 263 265 267 270 272 274 275 278 280 282 283 284 285 285 286 286 286 287 288 288 288 288
217 217 219 218 215 213 214 218 217 219 223 224 227 232 235 239 245 252 257 261 262 264 266 269 272 274 277 280 281 282 283 284 285 286 287 288 288 289 289 289 289 289 290 290
216 215 213 213 213 217 218 219 224 229 228 225 231 239 243 247 253 259 264 268 271 274 276 279 281 283 284 285 286 287 287 288 289 289 290 290 291 291 291 291 291 291 292 292
210 212 215 216 219 222 225 227 229 231 235 239 244 247 250 255 260 266 271 274 278 281 284 286 288 289 289 290 291 291 292 293 294 294 294 294 294 294 294 295 295 294 294 294
213 216 218 223 225 225 229 232 235 238 242 246 248 252 257 263 268 273 278 281 283 285 288 290 291 292 292 293 294 295 296 296 297 297 296 296 296 296 296 296 296 296 296 296
219 221 223 225 227 230 233 235 239 243 247 252 256 261 265 270 274 278 282 285 287 289 291 292 293 295 295 296 297 297 298 299 299 298 297 297 297 296 297 297 297 298 297 297
219 222 223 225 230 235 239 245 248 254 260 262 266 271 274 278 281 284 286 288 290 291 293 295 296 297 298 299 299 300 300 300 300 299 298 297 297 297 297 298 298 298 297 296
224 225 226 229 233 239 245 249 254 260 264 267 271 275 279 282 284 286 288 290 292 294 295 296 297 299 299 300 300 300 301 301 300 299 299 298 298 298 298 298 299 299 299 299
226 228 232 236 240 247 251 255 259 264 268 272 275 278 282 285 287 289 290 292 293 295 296 297 298 299 300 300 301 301 301 301 301 300 300 300 300 300 299 299 299 300 300 299
230 234 239 243 245 250 254 257 262 267 271 276 279 282 285 287 288 290 291 292 294 295 296 297 298 299 300 301 302 302 302 302 302 302 302 302 303 303 303 301 301 301 301 301
235 241 245 247 250 254 258 262 266 270 274 277 281 284 287 288 289 290 292 293 295 296 297 298 299 300 300 301 302 303 303 303 303 303 304 304 305 305 305 305 305 304 303 302
241 244 247 252 257 262 266 270 273 277 280 283 286 288 289 289 290 292 294 295 296 297 298 299 300 301 301 301 302 302 302 303 304 304 305 305 306 307 308 308 308 307 305 305
244 247 252 257 263 268 272 275 278 281 283 285 287 289 290 292 294 295 296 297 298 299 299 300 301 302 302 302 301 302 302 303 304 305 306 307 308 310 311 311 311 310 310 309